SJ-25

导读

SJ-25 是中国研制的一颗技术试验卫星,主要用于验证新型卫星平台和相关关键技术。该卫星于2018年发射,具备高机动性和自主任务执行能力,可进行在轨维护、目标识别和图像采集等操作。其任务涵盖空间科学探测、卫星控制技术验证及未来空间任务的前期准备。SJ-25 的成功运行为中国在卫星智能化、自主化发展方面积累了宝贵经验,对提升空间技术自主创新能力具有重要意义。

Basic Information
目录编号:
62485
目录名称:
SJ-25
国际标识:
2025-002A
轨道中心:
EARTH
卫星名称:
SJ-25
卫星全名:
SJ-25
卫星状态:
在轨 (已飞行531 天)
发射日期:
2025-01-06 UTC
国别 :
中国 (CN)
星等 :
--
Orbit Information
数据来源 国际轨道数据 AOE轨道数据
星历时间 2026-06-20T18:46:45+0800
1天前
查看轨道信息
2026-06-21T00:00:00+0800
1天前
查看轨道信息
半长轴 42167.588km 42167.336km
偏心率 0.0052012 0.0051925
轨道倾角 5.122° 5.122°
近地点辐角 173.403° 173.460°
升交点赤经 61.150° 61.152°
平近点角 322.963° 41.429°
近地点 35570.128km 35570.245km
远地点 36008.774km 36008.153km
周期 1436.243分钟 1436.230分钟
每日圈数 1.002616 1.002625
Detailed Information
使用方式:
暂无
2D Orbit Map
3D Orbit Map
Orbit Altitude Analysis Chart
Orbit Inclination Analysis Chart
Orbit Comprehensive Analysis Chart
View Comprehensive Chart